Date,TemperatureHighF,TemperatureAvgF,TemperatureLowF,DewpointHighF,DewpointAvgF,DewpointLowF,HumidityHigh,HumidityAvg,HumidityLow,PressureMaxIn,PressureMinIn,WindSpeedMaxMPH,WindSpeedAvgMPH,GustSpeedMaxMPH,PrecipitationSumIn
2013-1-1,43.1,38.8,35.1,39.9,32.3,18.8,91,78,45,30.19,29.97,10,2,19,0.01
2013-1-2,36.3,32.6,28.5,34.0,27.7,23.2,92,82,72,30.26,30.01,9,1,14,0.00
2013-1-3,37.8,31.0,28.7,24.6,22.4,18.3,84,71,49,30.32,30.23,11,1,13,0.00
2013-1-4,34.4,28.8,24.1,22.6,20.2,17.3,76,70,60,30.40,30.30,20,4,29,0.00
2013-1-5,43.1,34.2,24.7,30.2,22.6,19.2,81,64,42,30.50,30.29,13,1,23,0.00
2013-1-6,42.8,36.6,27.3,32.6,29.2,24.3,90,75,63,30.29,30.13,9,1,16,0.01
2013-1-7,43.6,34.8,27.1,29.6,24.5,21.0,79,67,49,30.51,30.25,10,1,22,0.00
2013-1-8,49.2,35.1,23.0,32.9,26.2,20.7,92,72,45,30.53,30.43,5,0,13,0.00
2013-1-9,53.9,42.1,28.7,48.2,37.5,25.9,92,84,63,30.52,30.45,9,1,16,0.00
2013-1-10,55.7,46.1,36.9,38.9,33.3,28.9,90,63,38,30.62,30.46,6,0,10,0.00
2013-1-11,46.0,42.8,39.0,43.4,38.8,31.6,97,86,60,30.46,30.19,3,0,7,0.01
2013-1-12,69.6,53.9,42.2,61.5,51.1,41.3,98,91,72,30.25,30.11,5,0,7,0.00
2013-1-13,69.1,59.5,54.4,57.4,55.3,53.2,97,87,63,30.11,30.00,8,1,13,0.00
2013-1-14,61.0,50.1,40.5,56.6,48.2,39.1,99,93,83,30.26,30.04,10,1,14,0.01
2013-1-15,41.9,39.7,36.0,40.9,38.6,34.9,100,96,95,30.29,30.13,4,0,5,0.00
2013-1-16,48.8,40.7,35.3,47.9,39.2,34.2,97,95,86,30.13,30.00,12,1,18,0.00
2013-1-17,43.1,35.3,30.4,40.8,33.4,27.9,96,93,90,30.26,30.04,5,0,10,0.00
2013-1-18,34.4,28.0,20.8,27.6,23.3,19.1,93,83,65,30.59,30.26,9,1,13,0.00
2013-1-19,42.7,28.1,14.2,33.5,22.6,12.0,93,81,55,30.55,30.22,3,0,5,0.00
2013-1-20,48.1,39.5,30.3,32.3,26.6,20.4,80,61,39,30.22,30.08,11,3,20,0.00
2013-1-21,44.4,34.9,24.7,26.9,19.5,9.9,77,55,36,30.14,29.94,14,2,25,0.00
2013-1-22,21.9,17.4,12.0,1.4,-0.5,-3.0,55,44,36,30.36,30.21,12,3,17,0.00
2013-1-23,29.2,20.3,11.8,19.9,7.0,-1.0,75,56,36,30.43,30.12,13,2,17,0.00
2013-1-24,35.2,21.2,11.6,24.7,8.9,3.0,76,59,45,30.59,30.08,17,3,32,0.00
2013-1-25,32.3,18.1,12.1,30.0,12.3,4.2,94,78,56,30.56,30.17,10,0,13,0.00
2013-1-26,33.6,28.2,23.6,30.3,22.2,18.0,92,78,68,30.50,30.17,15,3,19,0.01
2013-1-27,33.7,25.6,14.5,26.4,19.9,11.6,90,79,67,30.65,30.49,5,0,6,0.00
2013-1-28,61.1,46.2,30.4,48.4,40.2,26.2,96,81,63,30.53,30.24,6,1,18,0.00
2013-1-29,66.1,54.3,46.0,53.9,48.2,43.8,95,81,60,30.24,30.02,5,1,7,0.00
2013-1-30,63.9,57.5,45.8,59.5,55.0,43.3,98,92,85,30.02,29.39,13,2,19,0.04
2013-1-31,45.4,32.0,28.6,42.9,23.9,17.7,91,72,58,29.98,29.41,26,4,26,0.00
2013-2-1,33.6,19.8,13.9,28.2,10.0,3.8,89,66,52,30.44,29.86,19,3,28,0.00
2013-2-2,31.3,21.0,8.9,25.4,15.2,4.2,93,79,53,30.45,30.12,7,1,13,0.01
2013-2-3,34.7,28.7,25.3,27.7,23.2,18.6,93,80,72,30.11,29.93,14,2,24,0.08
2013-2-4,37.7,29.1,20.4,26.0,19.8,13.5,78,68,58,30.20,30.02,16,2,23,0.03
2013-2-5,43.8,39.0,35.6,35.3,31.5,25.3,86,75,63,30.03,29.96,9,2,16,0.00
2013-2-6,49.2,40.2,31.2,33.5,28.5,23.5,88,64,41,30.34,30.00,10,2,18,0.00
2013-2-7,36.1,33.3,30.6,32.1,29.2,23.9,93,85,68,30.40,30.15,3,0,6,0.03
2013-2-8,44.3,34.5,31.0,39.4,30.5,24.0,96,86,69,30.19,29.92,17,3,27,0.34
2013-2-9,43.1,32.5,25.1,24.2,18.2,12.5,76,57,33,30.43,30.18,19,3,25,0.00
2013-2-10,49.2,35.4,24.1,33.0,22.2,14.3,94,61,39,30.52,30.25,7,0,11,0.06
2013-2-11,58.5,46.8,34.5,52.3,40.3,24.0,98,80,43,30.25,29.95,11,2,17,0.06
2013-2-12,52.9,43.0,35.5,28.6,24.6,22.1,65,49,31,30.12,29.96,15,3,23,0.00
2013-2-13,40.7,38.3,33.5,39.6,34.1,25.9,96,85,58,29.98,29.65,18,1,20,0.24
2013-2-14,48.3,37.3,29.3,31.8,26.8,22.6,87,67,42,30.11,29.90,14,2,16,0.00
2013-2-15,53.7,37.2,26.9,38.9,30.1,23.9,93,78,47,30.14,29.97,16,2,18,0.02
2013-2-16,33.1,28.4,21.7,27.9,19.7,12.8,81,70,54,30.06,29.93,11,2,16,0.00
2013-2-17,27.2,19.8,13.7,15.1,7.6,2.0,77,59,47,30.34,30.00,14,3,22,0.00
2013-2-18,50.9,32.3,14.8,28.9,17.2,6.1,75,55,40,30.47,30.21,5,1,11,0.00
2013-2-19,48.1,38.2,31.8,39.5,26.8,14.1,94,66,38,30.22,29.85,13,3,24,0.04
2013-2-20,38.3,29.6,23.9,16.9,13.3,11.3,60,51,35,30.24,30.01,15,3,21,0.00
2013-2-21,44.6,31.8,20.2,21.2,15.5,11.2,69,52,33,30.33,30.21,12,1,15,0.00
2013-2-22,36.8,30.7,28.0,29.6,27.1,18.4,94,87,47,30.38,30.19,4,0,7,0.08
2013-2-23,50.2,38.3,30.6,44.3,35.5,29.0,96,90,78,30.21,29.89,3,0,4,0.10
2013-2-24,49.7,41.1,32.2,38.6,28.4,21.4,94,63,39,30.11,29.89,12,2,18,0.00
2013-2-25,40.1,31.5,24.5,27.4,22.5,19.1,82,70,58,30.24,30.11,4,0,7,0.00
2013-2-26,37.9,33.4,29.4,36.5,28.7,20.4,95,84,65,30.22,29.69,10,2,16,0.39
2013-2-27,42.1,38.3,35.2,36.1,33.1,30.8,96,82,69,29.83,29.68,11,2,16,0.01
2013-2-28,34.9,31.9,30.6,31.7,26.1,23.9,92,79,69,29.93,29.75,12,3,21,0.00
2013-3-1,36.5,32.6,30.4,27.3,25.3,22.1,84,75,66,29.99,29.89,11,2,20,0.00
2013-3-2,30.4,28.0,24.5,22.4,19.7,15.1,77,71,63,30.02,29.93,12,2,17,0.00
2013-3-3,28.4,24.3,22.4,18.0,15.9,13.5,76,70,63,30.09,29.98,13,2,20,0.00
2013-3-4,42.4,30.0,20.5,20.0,14.6,12.0,73,54,31,30.21,30.08,15,2,19,0.00
2013-3-5,46.1,35.6,29.3,33.8,28.7,15.5,94,77,50,30.16,29.68,4,0,6,0.33
2013-3-6,34.9,30.8,26.7,32.2,25.9,21.4,95,82,75,30.19,29.68,17,4,27,0.10
2013-3-7,35.3,31.8,29.8,27.1,25.8,24.2,86,78,67,30.35,30.18,10,2,17,0.01
2013-3-8,44.3,35.4,30.0,30.2,25.1,22.8,77,66,52,30.42,30.30,11,2,18,0.01
2013-3-9,57.9,41.0,22.9,35.1,27.5,19.6,89,62,33,30.44,30.32,5,1,9,0.00
2013-3-10,63.4,49.1,37.8,39.2,32.0,25.5,76,52,38,30.35,30.19,6,1,10,0.00
2013-3-11,54.8,49.1,41.7,50.0,40.0,29.0,97,72,56,30.23,29.90,5,1,13,0.32
2013-3-12,51.1,44.1,35.3,50.5,39.1,29.1,98,83,63,30.04,29.76,13,3,18,0.77
2013-3-13,38.1,33.1,25.6,30.7,24.8,16.7,87,72,52,30.23,30.02,14,3,26,0.02
2013-3-14,42.2,30.9,22.5,22.3,17.0,14.2,77,58,37,30.35,30.21,17,3,30,0.00
2013-3-15,59.8,42.7,28.4,39.8,27.1,15.8,65,54,42,30.26,29.94,13,2,15,0.00
2013-3-16,71.7,53.8,37.4,52.4,43.8,32.7,94,71,45,29.94,29.66,16,2,24,0.04
2013-3-17,53.9,44.0,33.6,49.1,41.4,32.3,95,91,82,30.19,29.88,6,1,12,0.29
2013-3-18,33.5,31.5,29.6,32.2,30.2,28.0,95,95,94,30.22,29.96,4,1,10,0.28
2013-3-19,54.4,41.2,32.1,39.3,24.9,5.4,97,60,20,30.10,29.90,19,4,32,0.00
2013-3-20,49.5,38.4,28.7,27.7,14.1,6.5,81,38,23,30.12,29.86,12,3,20,0.00
2013-3-21,30.4,24.3,19.7,24.9,15.2,10.2,82,68,54,30.09,29.83,14,3,20,0.00
2013-3-22,43.7,28.8,15.2,20.0,13.1,7.6,73,53,34,30.18,30.06,17,2,17,0.00
2013-3-23,50.2,37.6,27.1,30.1,22.1,14.6,74,54,38,30.12,29.97,10,1,14,0.00
2013-3-24,38.4,33.1,28.4,29.8,26.2,21.5,94,77,52,30.00,29.62,6,1,11,0.14
2013-3-25,36.5,30.6,27.2,29.3,25.6,23.5,94,82,62,29.87,29.59,12,2,26,0.28
2013-3-26,37.0,32.6,30.3,29.8,25.8,23.8,82,76,68,30.20,29.85,19,3,22,0.06
2013-3-27,39.5,32.3,28.7,27.9,24.6,21.8,82,73,57,30.31,30.19,12,3,20,0.02
2013-3-28,46.4,36.7,31.4,30.3,24.8,20.8,80,63,45,30.35,30.28,16,3,20,0.00
2013-3-29,54.0,39.8,25.9,31.0,25.5,21.6,86,59,36,30.39,30.24,10,1,15,0.00
2013-3-30,59.0,43.5,26.5,37.3,29.3,22.6,90,61,34,30.32,30.13,8,1,13,0.00
2013-3-31,55.8,48.1,43.0,51.2,42.6,29.1,98,82,52,30.13,29.84,7,1,11,0.42
2013-4-1,54.8,45.5,36.4,46.5,38.6,27.1,93,77,59,30.06,29.88,12,2,21,0.02
2013-4-2,48.2,38.2,30.4,27.5,20.1,13.3,69,50,28,30.24,30.06,13,2,19,0.00
2013-4-3,51.0,38.5,27.0,23.0,15.7,10.6,68,41,25,30.40,30.24,11,2,15,0.00
2013-4-4,38.8,33.0,29.7,31.3,21.5,11.7,95,66,41,30.41,30.08,10,1,10,0.09
2013-4-5,57.2,42.5,31.9,40.6,32.9,28.7,97,73,41,30.12,30.01,9,1,14,0.69
2013-4-6,62.9,47.9,30.5,40.8,32.5,25.9,87,57,33,30.29,30.12,5,1,10,0.00
2013-4-7,69.3,53.6,37.8,48.7,38.8,28.3,79,58,43,30.25,30.07,9,1,16,0.00
2013-4-8,75.6,60.3,43.7,53.9,47.5,39.9,88,65,41,30.17,30.02,12,1,15,0.00
2013-4-9,80.7,64.8,48.7,60.9,51.7,45.6,90,65,40,30.19,30.04,10,1,13,0.00
2013-4-10,84.8,68.9,52.8,62.5,54.5,48.8,90,64,29,30.09,29.90,8,1,15,0.00
2013-4-11,80.5,66.9,55.8,61.2,56.1,52.3,90,70,45,29.93,29.71,8,1,11,0.01
2013-4-12,70.4,61.3,51.5,62.3,53.0,37.0,99,77,41,29.85,29.61,13,2,20,1.17
2013-4-13,67.7,55.7,45.3,44.1,35.5,31.4,70,49,30,30.04,29.85,19,3,31,0.00
2013-4-14,73.8,59.2,40.1,47.0,39.0,31.6,79,49,33,30.13,30.02,9,1,15,0.00
2013-4-15,59.8,52.4,48.9,52.3,50.2,44.0,100,93,56,30.27,30.07,5,0,12,0.48
2013-4-16,76.1,62.3,53.5,62.9,56.6,52.1,97,83,58,30.32,30.17,4,0,13,0.00
2013-4-17,72.3,63.3,56.7,63.0,58.2,54.6,98,84,66,30.24,30.13,7,1,12,0.13
2013-4-18,73.9,65.4,59.4,62.2,58.1,54.9,92,78,55,30.15,29.96,7,1,15,0.00
2013-4-19,67.6,60.0,44.0,62.9,56.3,36.2,97,88,74,29.95,29.66,13,2,21,1.09
2013-4-20,56.2,45.1,36.4,36.8,30.5,24.7,75,58,38,30.37,29.90,14,3,21,0.00
2013-4-21,54.7,44.9,31.4,38.9,31.0,24.1,82,59,46,30.55,30.36,6,1,9,0.00
2013-4-22,57.3,45.3,33.3,39.8,31.1,25.0,83,60,32,30.52,30.33,6,1,10,0.00
2013-4-23,69.2,53.4,40.1,50.6,42.0,33.0,86,67,37,30.37,30.11,6,1,7,0.00
2013-4-24,73.3,58.0,45.0,57.9,50.5,42.6,95,78,48,30.14,29.92,15,2,25,0.22
2013-4-25,61.8,48.7,33.5,42.7,31.7,21.8,84,56,25,30.37,30.11,9,2,17,0.00
2013-4-26,64.3,52.0,36.7,45.3,35.2,27.8,80,54,34,30.48,30.35,7,1,10,0.00
2013-4-27,63.2,54.7,47.9,49.5,43.7,36.6,93,68,49,30.40,30.27,6,0,10,0.01
2013-4-28,53.5,50.7,49.2,52.0,49.2,47.6,98,95,90,30.27,30.10,3,0,7,0.38
2013-4-29,64.9,55.1,48.3,57.6,52.0,47.5,98,90,70,30.12,30.00,5,0,9,0.02
2013-4-30,67.8,59.4,54.8,58.8,54.8,51.9,97,86,69,30.23,30.05,5,1,11,0.00
2013-5-1,67.2,57.4,53.3,56.2,51.7,45.5,95,82,59,30.38,30.22,6,1,11,0.00
2013-5-2,65.3,56.1,49.3,55.9,47.5,38.8,88,73,62,30.38,30.27,5,1,10,0.00
2013-5-3,60.2,53.1,46.5,49.3,46.1,40.9,92,78,62,30.32,30.23,7,2,20,0.00
2013-5-4,60.0,50.3,43.1,48.7,43.1,38.8,87,77,58,30.24,30.13,10,2,14,0.00
2013-5-5,51.2,48.8,43.4,48.4,41.9,31.2,95,78,57,30.17,30.04,10,2,15,0.01
2013-5-6,55.0,52.0,49.2,54.1,50.8,47.5,98,96,94,30.06,29.91,8,2,17,0.83
2013-5-7,58.3,52.7,47.2,53.8,51.1,45.8,99,95,80,29.97,29.91,5,1,10,0.78
2013-5-8,57.6,49.9,45.2,54.6,48.7,44.1,98,96,87,30.07,29.95,3,0,4,0.66
2013-5-9,74.1,60.6,47.3,59.5,53.3,46.4,100,80,50,30.12,30.03,9,2,13,0.17
2013-5-10,77.9,61.9,50.5,64.6,56.7,49.0,99,85,52,30.10,29.95,9,0,18,0.30
2013-5-11,72.6,60.2,55.5,64.6,58.4,52.0,100,94,66,29.97,29.80,6,1,16,0.25
2013-5-12,56.9,51.3,41.6,52.1,39.8,31.3,92,67,43,30.10,29.87,14,2,20,0.10
2013-5-13,57.5,46.4,34.7,39.3,32.5,29.3,91,61,38,30.24,30.08,11,2,19,0.02
2013-5-14,70.3,51.7,31.3,49.7,39.1,29.5,95,66,37,30.29,30.07,7,1,11,0.01
2013-5-15,85.2,66.8,47.0,62.5,54.4,44.6,95,68,38,30.07,29.90,12,2,22,0.00
2013-5-16,78.7,69.4,60.1,61.0,56.8,51.4,81,65,50,30.01,29.91,10,2,17,0.00
2013-5-17,78.4,64.7,55.9,65.4,59.4,54.1,98,84,57,30.13,30.00,5,0,11,0.18
2013-5-18,65.6,61.9,59.0,64.3,61.2,58.4,99,98,93,30.17,30.10,3,0,4,0.18
2013-5-19,67.5,63.1,60.5,67.2,62.6,59.8,100,99,95,30.15,30.06,2,0,4,0.09
2013-5-20,76.1,66.0,59.5,69.9,64.0,58.6,100,94,77,30.13,30.02,7,0,10,0.05
2013-5-21,83.1,69.3,55.9,70.3,63.7,55.3,100,84,54,30.07,29.92,9,1,14,0.04
2013-5-22,82.3,65.3,55.9,71.9,62.5,55.6,100,92,57,30.00,29.89,5,0,17,0.04
2013-5-23,75.8,64.6,58.5,68.3,61.7,57.7,100,91,66,29.95,29.80,17,0,32,0.04
2013-5-24,58.8,53.3,47.0,57.5,45.7,36.6,97,77,52,30.24,29.86,19,3,21,0.02
2013-5-25,65.4,51.6,38.9,42.2,35.9,29.5,82,57,34,30.35,30.24,13,2,16,0.02
2013-5-26,68.7,57.3,47.3,51.1,42.6,39.7,83,60,37,30.30,30.21,6,1,14,0.02
2013-5-27,73.4,59.3,46.9,60.5,50.4,38.8,90,73,55,30.32,30.17,7,0,7,0.01
2013-5-28,82.0,67.6,55.2,69.3,60.0,53.2,97,79,47,30.23,30.12,7,1,12,0.01
2013-5-29,83.1,68.0,58.0,68.1,61.2,57.2,99,81,49,30.20,30.13,5,0,8,0.02
2013-5-30,84.2,70.1,56.9,68.4,61.5,52.9,98,77,36,30.26,30.15,6,0,9,0.00
2013-5-31,82.7,69.6,56.3,69.8,62.2,55.1,97,79,57,30.21,30.08,11,1,13,0.00
2013-6-1,82.0,69.9,59.1,72.1,63.7,57.9,98,82,61,30.12,29.98,7,1,14,0.00
2013-6-2,73.9,67.5,63.1,68.8,64.7,60.4,96,91,82,30.01,29.89,5,0,11,0.08
2013-6-3,75.5,65.8,59.8,67.8,62.1,56.4,100,89,68,30.02,29.88,6,1,12,0.02
2013-6-4,76.4,64.6,52.8,65.8,58.8,51.4,98,83,58,30.13,30.01,10,1,10,0.00
2013-6-5,69.3,64.2,59.0,64.6,61.3,58.1,99,91,81,30.15,30.05,5,0,7,0.00
2013-6-6,65.9,63.0,60.5,65.6,62.0,59.9,100,97,89,30.05,29.83,2,0,3,0.35
2013-6-7,71.6,65.3,59.5,69.4,63.9,57.4,100,96,88,29.86,29.66,6,0,10,0.01
2013-6-8,77.1,65.4,57.4,68.6,61.5,56.4,98,88,68,30.13,29.85,5,0,7,0.01
2013-6-9,82.5,70.4,62.1,70.8,65.2,61.4,99,85,55,30.17,30.04,4,0,7,0.13
2013-6-10,77.6,67.5,62.5,71.0,66.0,60.7,100,95,76,30.08,29.85,11,1,19,1.40
2013-6-11,75.6,67.0,61.3,68.9,63.3,60.1,99,89,72,29.99,29.89,6,1,12,0.42
2013-6-12,83.9,72.0,60.6,75.6,67.5,59.2,99,87,70,30.00,29.87,8,1,14,0.00
2013-6-13,81.9,71.3,62.2,73.5,67.1,55.8,99,87,71,29.88,29.61,10,2,30,0.19
2013-6-14,72.8,64.5,57.2,61.3,56.4,52.7,87,76,60,30.07,29.79,11,2,14,0.00
2013-6-15,77.3,64.4,51.5,62.9,56.9,50.3,99,79,53,30.18,30.06,10,1,12,0.00
2013-6-16,79.8,67.3,54.8,69.9,62.4,53.6,98,85,67,30.11,30.01,7,1,15,0.13
2013-6-17,82.6,70.5,62.8,72.8,66.6,62.5,100,89,66,30.06,29.91,5,0,10,0.18
2013-6-18,71.6,66.0,61.8,69.4,64.8,60.9,100,96,88,29.97,29.82,5,0,9,0.64
2013-6-19,77.4,64.9,56.9,69.6,62.6,56.3,100,93,69,30.17,29.95,4,0,7,0.14
2013-6-20,76.8,67.0,61.2,70.8,64.5,60.6,100,92,76,30.27,30.17,3,0,6,0.00
2013-6-21,81.1,68.1,58.7,71.1,63.7,57.8,99,87,63,30.30,30.20,4,0,6,0.00
2013-6-22,81.4,68.1,54.7,68.7,61.6,53.8,98,81,57,30.28,30.14,4,0,9,0.00
2013-6-23,83.0,71.1,62.4,72.1,66.2,62.1,100,86,54,30.22,30.11,3,0,9,0.02
2013-6-24,82.3,71.6,62.6,74.0,67.7,62.3,100,89,65,30.21,30.09,5,0,7,0.01
2013-6-25,83.3,71.7,62.3,74.9,68.0,61.9,100,89,70,30.13,30.00,7,0,11,0.00
2013-6-26,83.9,69.5,62.4,75.1,67.5,61.8,100,94,69,30.03,29.91,8,0,20,0.87
2013-6-27,77.1,68.7,63.8,72.3,67.0,63.5,100,95,80,29.93,29.74,7,1,13,0.11
2013-6-28,83.3,74.0,67.1,72.5,67.5,63.2,98,81,59,29.77,29.55,7,1,15,0.00
2013-6-29,81.0,69.3,60.3,70.3,63.9,59.3,99,84,57,29.74,29.59,7,1,12,0.00
2013-6-30,82.8,69.7,62.0,71.6,65.6,61.1,100,88,55,29.86,29.71,4,0,7,0.78
2013-7-1,78.5,69.7,64.3,70.9,67.1,64.2,100,92,75,29.98,29.82,4,0,9,0.03
2013-7-2,74.1,68.5,66.4,71.2,67.6,66.1,100,97,89,30.16,29.97,4,0,7,0.97
2013-7-3,73.2,68.9,66.4,72.0,68.4,66.1,100,99,93,30.24,30.14,2,0,10,1.34
2013-7-4,80.4,71.5,66.9,75.1,69.4,66.6,100,94,75,30.27,30.17,4,0,11,0.33
2013-7-5,81.2,71.7,65.8,74.5,69.5,65.2,100,93,77,30.25,30.16,6,0,11,0.11
2013-7-6,82.1,71.9,65.0,73.1,68.3,64.7,100,90,65,30.23,30.11,6,0,14,0.03
2013-7-7,81.6,69.7,66.0,74.9,68.2,64.7,100,95,72,30.18,30.08,9,0,16,0.31
2013-7-8,81.2,70.3,63.4,72.5,67.1,63.1,100,91,64,30.20,30.11,6,1,10,0.00
2013-7-9,84.4,72.7,65.1,75.2,68.3,63.4,99,87,61,30.18,30.06,4,0,6,0.00
2013-7-10,82.0,70.4,66.0,76.0,69.1,65.3,100,96,79,30.10,29.96,5,0,13,0.89
2013-7-11,79.4,71.4,66.0,73.4,68.9,65.7,100,93,76,29.97,29.88,3,0,7,0.00
2013-7-12,74.2,68.0,63.2,68.7,65.2,61.5,98,91,76,30.09,29.90,7,0,10,0.00
2013-7-13,74.1,67.7,62.9,71.2,66.0,61.3,98,94,85,30.20,30.07,5,0,7,0.02
2013-7-14,80.7,72.2,67.0,74.2,69.3,66.7,100,91,73,30.33,30.20,5,1,10,0.09
2013-7-15,85.2,73.9,66.4,75.4,69.6,65.8,100,88,61,30.36,30.26,4,0,5,0.10
2013-7-16,88.4,73.3,62.2,76.4,68.5,61.9,100,87,55,30.34,30.22,6,0,10,0.06
2013-7-17,87.7,73.6,66.3,79.2,70.9,66.0,100,92,68,30.29,30.17,5,0,13,0.05
2013-7-18,87.1,75.2,66.2,78.7,72.3,66.1,100,92,68,30.20,30.06,3,0,5,0.00
2013-7-19,87.0,73.5,67.3,79.9,71.1,66.4,100,93,67,30.11,29.97,10,0,18,0.11
2013-7-20,85.0,72.9,65.3,76.8,70.1,65.0,100,92,69,30.02,29.91,4,0,11,0.02
2013-7-21,80.8,71.5,65.2,76.5,70.2,64.9,100,96,82,30.01,29.93,5,0,13,0.30
2013-7-22,82.6,71.7,66.1,74.5,69.7,65.8,100,94,75,29.97,29.81,9,0,15,0.31
2013-7-23,81.6,72.7,67.2,73.8,68.8,66.4,100,89,69,29.83,29.75,7,1,11,0.03
2013-7-24,78.7,70.8,63.9,70.8,66.0,61.6,100,85,70,29.91,29.76,6,1,11,0.00
2013-7-25,78.7,68.7,59.0,68.5,61.9,55.9,93,80,53,30.08,29.91,4,0,7,0.00
2013-7-26,80.1,66.9,54.1,70.0,61.9,52.9,98,85,64,30.13,30.03,5,0,11,0.00
2013-7-27,71.6,66.8,64.1,69.9,65.9,63.4,99,97,90,30.07,29.94,3,0,5,1.26
2013-7-28,80.5,69.6,63.6,72.6,66.0,61.2,100,89,68,30.03,29.93,4,0,6,0.02
2013-7-29,75.1,64.7,54.6,62.1,57.6,53.1,98,80,54,30.25,30.03,5,1,10,0.00
2013-7-30,76.5,63.6,51.5,67.1,58.9,50.3,98,86,63,30.30,30.19,3,0,5,0.00
2013-7-31,67.6,64.2,62.5,65.7,63.1,61.4,99,96,88,30.21,30.03,1,0,4,0.43
2013-8-1,79.3,68.9,62.6,72.4,65.8,62.1,100,91,71,30.03,29.91,6,1,9,0.29
2013-8-2,78.5,67.8,59.1,67.3,62.5,58.5,99,84,61,30.06,29.96,8,0,10,0.00
2013-8-3,78.7,67.4,58.4,72.3,64.2,57.7,99,90,71,30.05,29.97,6,0,9,0.01
2013-8-4,76.6,68.7,61.5,66.0,62.7,57.7,98,83,61,30.10,29.96,5,0,12,0.00
2013-8-5,76.6,66.8,58.5,68.7,61.3,55.4,93,83,67,30.13,30.01,4,0,6,0.00
2013-8-6,80.1,70.9,65.0,71.7,66.8,63.5,97,88,69,30.04,29.98,6,0,7,0.00
2013-8-7,78.7,70.6,67.2,72.9,68.2,66.0,97,92,80,30.08,30.02,4,0,10,0.00
2013-8-8,79.9,71.9,68.2,74.6,69.9,66.7,99,94,79,30.06,30.00,4,0,7,0.16
2013-8-9,83.9,74.5,67.9,77.0,71.7,67.6,100,92,77,30.04,29.96,7,1,13,0.13
2013-8-10,84.7,74.3,67.2,76.3,70.6,66.2,100,89,70,30.09,30.03,7,1,13,0.01
2013-8-11,82.7,72.1,66.8,75.2,69.8,66.5,100,93,74,30.13,30.03,4,0,7,0.42
2013-8-12,82.6,72.3,65.6,74.2,68.7,65.3,100,90,67,30.09,29.97,5,1,7,0.13
2013-8-13,77.4,69.7,64.2,72.6,67.4,62.3,100,93,78,29.98,29.82,5,0,14,0.19
2013-8-14,72.2,63.0,54.5,62.4,55.9,49.6,95,79,56,30.16,29.91,6,1,15,0.00
2013-8-15,71.9,59.2,50.5,60.6,53.3,47.7,95,82,61,30.22,30.12,3,0,5,0.00
2013-8-16,72.8,59.3,48.7,63.6,55.1,47.9,99,87,68,30.24,30.15,4,0,7,0.00
2013-8-17,68.3,59.8,52.1,61.3,57.3,51.2,99,92,76,30.27,30.21,5,0,9,0.25
2013-8-18,70.8,63.9,59.5,67.9,62.6,59.2,100,96,87,30.26,30.18,2,0,4,0.21
2013-8-19,74.4,67.0,63.3,71.7,65.7,62.7,100,96,82,30.23,30.10,5,0,7,0.29
2013-8-20,80.7,69.6,63.3,73.6,67.2,62.7,100,93,69,30.21,30.13,3,0,6,0.00
2013-8-21,78.4,70.0,64.2,72.8,68.0,63.9,100,94,78,30.23,30.12,5,0,14,0.03
2013-8-22,81.0,69.3,59.6,74.0,66.2,59.0,100,91,70,30.18,30.04,8,1,10,0.01
2013-8-23,80.7,68.8,61.2,73.4,65.6,60.3,100,91,69,30.15,29.98,7,0,14,0.00
2013-8-24,76.7,64.8,54.6,64.0,58.7,53.7,98,83,52,30.35,30.15,5,0,6,0.00
2013-8-25,75.8,63.3,52.9,64.3,57.4,51.9,98,83,52,30.44,30.32,4,0,7,0.00
2013-8-26,79.6,63.8,50.2,68.8,59.5,49.6,100,87,60,30.37,30.15,4,0,6,0.00
2013-8-27,79.9,70.3,59.6,73.8,66.9,59.0,100,89,75,30.15,30.00,6,1,11,0.00
2013-8-28,82.3,73.2,66.2,76.1,69.4,65.4,99,89,72,30.04,29.88,7,1,13,0.00
2013-8-29,84.8,75.5,68.3,76.2,71.2,68.0,99,87,70,30.03,29.88,10,1,14,0.60
2013-8-30,81.9,71.2,64.4,74.3,68.4,64.1,100,92,71,30.06,29.94,5,0,9,0.00
2013-8-31,83.1,69.8,64.0,76.2,67.7,62.6,100,94,71,29.97,29.85,10,0,16,0.14
2013-9-1,78.2,68.8,62.0,74.3,67.7,61.7,100,96,81,29.92,29.83,4,0,7,0.25
2013-9-2,82.0,71.4,63.8,74.2,68.2,63.5,100,90,68,29.92,29.82,8,1,12,0.01
2013-9-3,81.2,70.7,60.7,71.4,65.5,58.3,100,85,59,30.02,29.83,10,1,13,0.00
2013-9-4,78.7,64.1,52.8,66.0,58.8,52.2,99,85,46,30.15,30.02,5,0,6,0.00
2013-9-5,79.8,65.7,53.5,65.9,59.2,52.9,99,82,51,30.18,30.11,5,0,12,0.00
2013-9-6,75.3,63.6,54.9,65.9,59.5,54.3,99,88,64,30.23,30.13,4,0,5,0.00
2013-9-7,80.5,66.1,54.8,67.6,58.4,53.3,97,78,47,30.17,30.01,6,1,9,0.00
2013-9-8,82.9,67.9,56.2,71.6,62.8,54.0,98,85,61,30.04,29.96,5,0,9,0.00
2013-9-9,77.2,67.9,60.8,70.8,65.6,60.2,99,93,78,30.19,30.05,3,0,6,0.00
2013-9-10,84.6,70.5,63.0,77.6,68.4,62.5,100,94,70,30.26,30.16,5,0,5,0.62
2013-9-11,84.8,72.2,63.0,76.8,68.9,62.7,100,90,67,30.23,30.09,5,0,7,0.00
2013-9-12,84.2,72.3,63.5,74.4,67.9,63.2,100,87,68,30.09,29.84,8,1,11,0.01
2013-9-13,72.7,65.6,53.5,63.6,56.5,47.3,90,74,49,29.99,29.79,11,2,14,0.00
2013-9-14,69.4,55.4,44.1,54.4,48.2,42.5,97,78,52,30.20,29.98,6,1,10,0.00
2013-9-15,74.3,59.3,45.9,63.0,53.8,44.0,97,83,60,30.28,30.15,11,0,13,0.00
2013-9-16,73.1,59.7,51.9,64.3,56.6,50.9,99,90,70,30.28,30.15,4,0,11,0.00
2013-9-17,65.5,55.0,45.1,55.8,51.0,43.5,100,87,66,30.41,30.27,7,0,7,0.00
2013-9-18,67.6,55.5,45.5,59.3,52.2,44.1,97,89,73,30.35,30.22,5,0,6,0.00
2013-9-19,73.0,62.9,57.4,67.5,60.6,56.1,97,93,81,30.23,30.10,7,0,10,0.00
2013-9-20,75.0,65.7,62.7,69.9,64.4,62.1,100,96,82,30.11,29.97,3,0,6,0.17
2013-9-21,68.6,62.8,55.9,67.0,61.9,55.3,99,97,93,29.97,29.72,7,0,11,0.69
2013-9-22,70.4,58.1,48.8,59.7,53.8,48.2,100,87,63,29.99,29.80,6,1,7,0.02
2013-9-23,72.0,56.8,46.5,61.1,52.6,45.1,100,87,62,30.11,29.99,4,0,10,0.00
2013-9-24,74.8,60.3,52.5,64.4,56.9,51.6,100,89,61,30.12,29.96,4,0,7,0.00
2013-9-25,67.4,59.7,53.5,61.6,57.6,52.8,99,93,77,30.00,29.91,3,0,3,0.03
2013-9-26,74.0,61.9,55.2,62.0,57.4,53.7,99,86,60,30.10,29.94,4,0,7,0.01
2013-9-27,71.5,58.8,47.9,58.4,53.0,46.2,97,83,57,30.24,30.10,4,0,7,0.00
2013-9-28,63.1,57.1,49.1,56.5,53.4,47.4,96,88,73,30.30,30.23,3,0,5,0.00
2013-9-29,69.2,54.2,42.6,60.1,50.5,41.2,98,88,65,30.24,30.10,5,0,6,0.00
2013-9-30,69.0,58.3,48.9,61.9,55.1,47.8,98,90,72,30.14,30.04,4,0,6,0.00
2013-10-1,75.4,60.1,50.5,63.7,55.6,49.6,99,87,57,30.18,30.09,6,1,10,0.00
2013-10-2,77.7,60.4,47.0,65.3,55.9,46.4,99,87,59,30.21,30.11,5,1,9,0.00
2013-10-3,76.8,61.7,51.9,67.0,58.2,51.3,99,89,61,30.19,30.10,4,0,6,0.00
2013-10-4,80.0,64.6,51.7,70.3,60.6,50.5,99,88,65,30.20,30.10,3,0,8,0.00
2013-10-5,80.9,65.7,54.2,68.8,61.2,53.6,99,87,59,30.18,30.06,5,0,7,0.00
2013-10-6,80.9,67.6,58.3,67.6,61.8,57.7,99,83,57,30.08,29.91,6,1,12,0.00
2013-10-7,65.2,59.2,48.5,63.1,55.3,44.8,98,88,69,30.12,29.79,11,1,16,1.93
2013-10-8,65.1,51.7,43.2,52.0,45.5,41.0,94,81,59,30.31,30.11,5,1,11,0.00
2013-10-9,66.1,51.6,38.6,49.5,44.0,37.5,97,78,48,30.34,30.23,7,1,9,0.00
2013-10-10,67.7,55.8,46.3,61.9,52.3,42.2,97,88,78,30.24,30.03,4,0,7,0.03
2013-10-11,67.8,61.5,55.7,60.6,57.3,53.5,94,86,76,30.03,29.96,7,1,12,0.00
2013-10-12,65.9,61.3,56.8,62.4,59.0,55.3,97,92,83,30.14,30.01,2,0,5,0.03
2013-10-13,65.9,61.0,58.0,61.7,59.1,57.2,98,94,85,30.28,30.14,3,0,7,0.01
2013-10-14,65.1,59.2,55.4,61.1,57.4,54.5,98,94,85,30.31,30.21,3,0,4,0.18
2013-10-15,67.1,56.2,47.7,57.3,52.3,46.8,100,88,66,30.27,30.12,3,0,7,0.00
2013-10-16,67.2,57.3,48.1,59.1,53.4,46.7,97,87,72,30.13,29.99,4,0,6,0.00
2013-10-17,65.7,58.5,52.4,63.0,56.8,48.3,98,94,86,30.01,29.83,11,1,21,0.04
2013-10-18,63.5,52.5,43.2,49.1,44.4,39.7,91,75,50,30.08,29.96,7,1,13,0.00
2013-10-19,60.8,53.2,47.3,55.8,48.6,43.2,97,85,64,30.04,29.85,9,1,15,0.00
2013-10-20,60.0,47.2,35.2,42.6,36.5,31.6,90,68,39,30.17,29.98,8,1,15,0.00
2013-10-21,65.3,49.1,33.7,49.5,41.2,31.2,95,76,43,30.22,30.03,9,0,10,0.00
2013-10-22,61.6,50.8,42.5,50.2,46.1,41.7,98,85,64,30.04,29.86,13,1,15,0.00
2013-10-23,51.8,44.5,36.6,46.1,39.5,30.9,94,83,64,30.05,29.76,13,2,22,0.02
2013-10-24,43.1,37.7,31.7,34.0,30.7,27.6,87,76,65,30.26,30.04,7,1,16,0.00
2013-10-25,43.3,35.1,27.0,30.9,28.1,23.2,90,76,56,30.45,30.26,9,1,15,0.01
2013-10-26,54.4,37.9,20.1,35.9,25.5,17.9,93,66,30,30.44,30.12,9,1,19,0.00
2013-10-27,61.8,49.7,39.6,41.4,37.4,34.1,85,64,44,30.17,30.07,11,2,19,0.00
2013-10-28,54.2,45.9,36.1,51.0,43.3,33.5,96,91,81,30.34,30.17,2,0,3,0.00
2013-10-29,63.6,55.0,45.9,54.8,50.7,44.8,98,86,67,30.41,30.29,3,0,6,0.01
2013-10-30,67.5,57.3,52.3,61.4,54.6,49.9,98,91,77,30.32,30.18,7,0,10,0.32
2013-10-31,65.1,60.1,55.9,59.4,56.2,54.3,97,88,73,30.20,29.80,7,1,16,0.00
2013-11-1,70.9,63.2,52.7,59.9,53.9,45.2,94,73,50,29.79,29.64,16,2,19,0.17
2013-11-2,60.4,52.5,44.8,45.6,39.8,32.6,78,63,45,30.00,29.72,13,2,22,0.00
2013-11-3,54.1,44.4,33.5,37.3,34.1,29.1,86,68,50,30.44,30.00,10,1,16,0.00
2013-11-4,49.7,38.6,28.4,34.3,29.5,24.2,89,71,52,30.62,30.43,4,0,6,0.00
2013-11-5,54.2,42.5,31.5,44.1,34.6,24.2,91,74,61,30.66,30.52,2,0,5,0.01
2013-11-6,64.4,52.7,44.4,52.8,47.7,42.1,97,84,64,30.52,30.14,7,0,10,0.02
2013-11-7,52.8,45.2,37.1,52.2,39.7,26.8,98,82,64,30.19,30.01,18,2,20,0.04
2013-11-8,46.7,37.4,27.7,29.9,25.7,22.1,82,63,43,30.41,30.19,13,2,23,0.00
2013-11-9,54.3,38.7,24.1,34.2,26.3,20.5,89,64,38,30.43,30.23,9,1,13,0.00
2013-11-10,47.4,43.9,38.0,31.0,28.5,26.5,66,55,50,30.24,30.20,13,2,21,0.00
2013-11-12,35.3,29.0,25.4,25.0,18.6,15.8,71,65,59,30.52,30.28,12,2,18,0.00
2013-11-13,38.8,29.3,22.1,18.5,15.8,12.5,74,58,39,30.63,30.50,10,1,13,0.00
2013-11-14,55.9,35.3,19.7,24.9,18.1,14.7,83,54,25,30.55,30.38,9,1,16,0.00
2013-11-15,57.2,40.9,24.9,45.8,29.2,17.8,97,66,33,30.41,30.26,3,0,5,0.23
2013-11-16,52.2,48.2,41.8,50.8,47.2,41.0,98,97,95,30.32,30.25,2,0,3,0.03
2013-11-17,64.7,55.2,50.4,58.6,53.2,49.5,99,93,77,30.26,29.84,5,0,11,0.08
2013-11-18,59.7,53.1,43.0,58.0,38.7,27.5,98,60,36,30.04,29.82,18,3,27,0.17
2013-11-19,46.1,38.5,32.2,29.9,26.1,24.2,76,61,48,30.38,30.03,12,1,23,0.00
2013-11-20,42.7,35.1,29.2,27.6,24.7,22.5,78,66,51,30.56,30.38,5,0,7,0.00
2013-11-21,51.3,42.3,34.7,43.8,35.9,25.8,86,78,68,30.60,30.46,3,0,4,0.00
2013-11-22,63.9,54.4,45.9,55.5,49.9,41.0,93,85,73,30.45,30.12,8,1,13,0.01
2013-11-23,52.4,41.4,26.9,48.6,32.0,13.2,88,70,51,30.29,30.13,13,3,21,0.01
2013-11-24,27.4,21.5,15.1,15.2,7.1,2.8,68,54,36,30.63,30.29,13,2,28,0.00
2013-11-25,34.9,24.2,13.4,16.3,10.7,6.0,77,58,40,30.63,30.45,4,0,6,0.00
2013-11-26,40.3,34.2,27.1,39.5,32.2,16.7,97,93,55,30.46,29.73,3,0,10,1.30
2013-11-27,41.1,29.0,20.8,40.5,23.7,11.6,98,80,67,30.23,29.69,18,4,28,0.03
2013-11-28,34.4,25.7,19.4,21.9,16.7,12.3,80,69,51,30.56,30.24,10,1,19,0.01
2013-11-29,43.5,32.1,21.7,27.4,21.2,16.8,86,65,49,30.72,30.54,6,1,13,0.00
2013-11-30,37.7,28.5,20.3,25.8,20.8,15.7,84,73,61,30.73,30.45,5,0,5,0.00
2013-12-1,51.5,33.5,17.6,32.4,24.6,14.6,92,72,44,30.45,30.12,5,1,9,0.00
2013-12-2,49.3,41.1,33.2,37.5,33.0,27.3,84,73,62,30.12,29.90,3,0,4,0.00
2013-12-3,56.1,45.4,35.3,44.2,38.8,32.0,92,78,63,30.02,29.92,3,0,6,0.00
2013-12-4,60.6,51.4,46.7,52.1,47.6,43.2,93,87,72,30.10,29.99,4,0,6,0.00
2013-12-5,63.3,55.9,47.1,58.5,53.5,45.7,100,92,82,30.12,30.00,2,0,5,0.03
2013-12-6,64.8,57.3,41.5,61.4,56.1,39.6,100,96,83,30.08,29.89,13,1,21,0.87
2013-12-7,41.2,35.4,30.8,39.3,32.0,26.9,93,88,81,30.53,30.07,7,1,14,0.04
2013-12-8,33.0,28.6,25.3,30.4,26.7,23.5,96,93,88,30.52,30.32,4,0,6,0.00
2013-12-9,48.2,37.2,30.2,45.0,35.3,29.0,98,93,86,30.33,30.11,10,1,16,0.29
2013-12-10,38.0,32.5,25.9,36.4,28.5,18.4,100,85,73,30.36,30.01,12,1,25,0.23
2013-12-11,44.1,32.5,23.1,25.2,19.9,16.3,78,61,43,30.50,30.35,14,3,21,0.00
2013-12-12,31.9,26.8,23.2,20.3,13.1,5.9,70,57,36,30.48,30.37,10,2,18,0.00
2013-12-13,44.5,32.3,23.4,23.7,16.4,9.9,68,52,38,30.44,30.33,7,1,12,0.00
2013-12-14,35.0,32.9,32.2,32.4,30.1,22.6,96,90,66,30.39,29.83,6,0,9,0.33
2013-12-15,38.3,33.3,30.6,37.3,29.2,25.1,97,85,77,30.12,29.79,16,3,20,0.03
2013-12-16,43.7,34.7,28.9,33.5,28.1,23.8,85,77,63,30.24,30.10,6,1,14,0.00
2013-12-17,51.6,39.1,28.8,37.0,31.3,24.6,93,75,55,30.17,29.96,17,3,24,0.08
2013-12-18,38.9,31.4,26.3,24.8,19.6,16.4,75,62,43,30.35,30.08,17,3,27,0.00
2013-12-19,62.2,40.1,23.3,32.9,24.7,16.8,83,57,29,30.37,30.24,9,0,13,0.00
2013-12-20,59.3,46.3,36.2,44.8,32.3,25.2,78,59,39,30.25,30.13,6,0,13,0.00
2013-12-21,64.0,54.2,42.6,59.3,48.8,36.1,92,82,72,30.15,29.98,11,1,17,0.01
2013-12-22,64.1,57.3,52.9,61.5,56.0,52.2,99,96,82,30.08,29.93,13,1,25,0.86
2013-12-23,56.6,45.1,28.6,56.3,42.3,24.1,99,90,78,30.27,29.99,23,1,23,0.98
2013-12-24,33.5,26.2,16.6,25.2,18.3,7.8,84,72,59,30.54,30.25,10,2,18,0.00
2013-12-25,34.6,21.5,10.6,16.3,10.9,6.7,87,66,34,30.62,30.45,4,0,6,0.00
2013-12-26,41.1,28.6,18.1,27.1,18.0,10.4,84,65,48,30.49,30.36,13,1,19,0.00
2013-12-27,47.3,32.2,21.0,26.5,20.1,16.1,86,63,38,30.56,30.45,7,1,7,0.00
2013-12-28,50.4,34.5,19.8,36.2,24.4,16.1,91,69,40,30.49,30.23,3,0,5,0.13
2013-12-29,45.1,41.0,38.2,43.5,39.0,35.2,97,93,81,30.24,29.75,13,1,24,1.23
2013-12-30,40.9,36.2,31.1,36.0,31.1,25.4,85,82,78,30.21,29.97,12,2,21,0.00
2013-12-31,38.5,32.1,25.6,26.8,21.6,18.0,83,66,49,30.44,30.18,16,2,22,0.00
2014-1-1,47.9,31.8,21.5,28.6,21.9,17.8,90,70,35,30.48,30.19,9,0,9,0.00
2014-1-2,36.4,30.9,23.0,34.3,27.3,16.8,94,87,78,30.19,29.72,20,1,26,0.09